Location: Unspecified
(0.0000°N, 0.0000°E)
Time: 22:29:27
(UTC+00:00)

SL-14 DEB - Visible Passes

Search period start: 29 April 2025 00:00
Search period end: 09 May 2025 00:00
Orbit: 1145 x 1559 km, 82.5° (Epoch: 28 April)

Date Brightness Start Highest point End Pass type
(mag) Time Alt. Az. Time Alt. Az. Time Alt. Az.
29 Apr ? 19:55:58 14° NE 19:55:58 14° NE 19:57:06 10° NE visible
29 Apr ? 21:48:41 20° NNW 21:48:41 20° NNW 21:51:14 10° NNW visible
30 Apr ? 20:21:08 27° NNE 20:21:08 27° NNE 20:24:49 10° NNE visible
30 Apr ? 22:13:50 15° NW 22:13:50 15° NW 22:15:45 10° NW visible
01 May ? 20:46:04 44° N 20:46:04 44° N 20:51:37 10° N visible
02 May ? 19:18:03 20° ENE 19:18:03 20° ENE 19:22:07 10° NE visible
02 May ? 21:10:42 47° NW 21:10:42 47° NW 21:17:38 10° NNW visible
03 May ? 19:42:09 41° E 19:42:09 41° E 19:50:21 10° NNE visible
03 May ? 21:34:44 28° W 21:35:22 28° W 21:42:44 10° NNW visible
04 May ? 19:59:24 10° S 20:08:33 73° E 20:17:28 10° N visible
04 May ? 21:57:36 10° WSW 22:01:44 14° W 22:05:53 10° WNW visible
05 May ? 18:36:39 10° SE 18:41:37 16° E 18:46:29 10° ENE visible
05 May ? 20:25:52 10° SSW 20:34:57 67° W 20:43:47 10° N visible
06 May ? 19:00:16 10° SSE 19:08:02 31° E 19:15:35 10° NE visible
06 May ? 20:53:08 10° SSW 21:01:18 37° W 21:09:17 10° NNW visible
07 May ? 19:25:30 10° S 19:34:27 57° E 19:43:04 10° NNE visible
07 May ? 21:21:40 10° SW 21:27:37 19° W 21:33:30 10° NW visible
08 May ? 19:51:36 10° S 20:00:49 84° W 20:09:40 10° N visible
